| time (UTC) | temp F | wind direction | speed knots | gust knots | rain 1hr in | rain 24hr in | rain mn in | humidity % | barometer mb |
| 20260504191530 | 47 | 213 | 7.8 | 18.2 | 0.00 | 0.65 | 0.32 | 78 | 1002.4 |
| 20260504190030 | 49 | 298 | 12.2 | 20.0 | 0.00 | 0.65 | 0.32 | 73 | 1002.0 |
| 20260504184525 | 49 | 270 | 11.3 | 21.7 | 0.00 | 0.70 | 0.32 | 73 | 1001.7 |
| 20260504183022 | 49 | 229 | 11.3 | 24.3 | 0.00 | 0.70 | 0.32 | 76 | 1001.6 |
| 20260504181518 | 48 | 270 | 12.2 | 22.6 | 0.00 | 0.70 | 0.32 | 78 | 1001.4 |
| 20260504180016 | 47 | 239 | 11.3 | 22.6 | 0.00 | 0.70 | 0.32 | 79 | 1001.3 |
| 20260504174514 | 47 | 275 | 13.0 | 26.9 | 0.00 | 0.70 | 0.32 | 81 | 1001.0 |
| 20260504173009 | 45 | 200 | 12.2 | 22.6 | 0.00 | 0.70 | 0.32 | 83 | 1000.8 |
| 20260504171606 | 46 | 228 | 13.0 | 24.3 | 0.00 | 0.70 | 0.32 | 87 | 1000.6 |
| 20260504081530 | 37 | 270 | 19.1 | 31.3 | 0.02 | 0.50 | 0.13 | 99 | 983.0 |
| 20260504044549 | 39 | 275 | 4.3 | 11.3 | 0.03 | 0.43 | 0.05 | 98 | 976.7 |
| 20260504043047 | 39 | 285 | 4.3 | 8.7 | 0.05 | 0.43 | 0.05 | 97 | 976.6 |
| 20260504041545 | 39 | 295 | 2.6 | 5.2 | 0.04 | 0.42 | 0.04 | 97 | 976.5 |
| 20260504040042 | 39 | 350 | 1.7 | 7.0 | 0.02 | 0.40 | 0.02 | 97 | 976.5 |
| 20260504034542 | 39 | 44 | 0.9 | 6.1 | 0.02 | 0.39 | 0.02 | 97 | 976.6 |
| 20260504033040 | 40 | 45 | 1.7 | 6.1 | 0.00 | 0.38 | 0.00 | 97 | 976.7 |
| 20260504031537 | 40 | 323 | 0.9 | 13.0 | 0.01 | 0.38 | 0.00 | 96 | 976.8 |
| 20260504030040 | 40 | 52 | 3.5 | 9.6 | 0.01 | 0.38 | 0.00 | 97 | 977.2 |
| 20260504024531 | 40 | 85 | 4.3 | 13.0 | 0.01 | 0.38 | 0.38 | 96 | 977.5 |
| 20260504023031 | 41 | 107 | 5.2 | 16.5 | 0.01 | 0.38 | 0.38 | 97 | 978.0 |
| 20260504021528 | 41 | 141 | 6.1 | 10.4 | 0.00 | 0.37 | 0.37 | 97 | 978.8 |
| 20260504020025 | 41 | 112 | 4.3 | 13.9 | 0.00 | 0.37 | 0.37 | 97 | 979.2 |
| 20260504014522 | 41 | 59 | 4.3 | 14.8 | 0.01 | 0.37 | 0.37 | 97 | 979.4 |
| 20260504013019 | 41 | 85 | 6.1 | 14.8 | 0.01 | 0.37 | 0.37 | 97 | 980.0 |
| 20260504011518 | 41 | 130 | 5.2 | 17.4 | 0.01 | 0.37 | 0.37 | 97 | 980.5 |
| 20260504010013 | 41 | 73 | 6.1 | 18.2 | 0.01 | 0.37 | 0.37 | 97 | 980.9 |
| 20260504004519 | 41 | 42 | 6.1 | 18.2 | 0.00 | 0.36 | 0.36 | 97 | 982.1 |
| 20260504003009 | 41 | 22 | 7.8 | 16.5 | 0.01 | 0.36 | 0.36 | 97 | 982.3 |
| 20260504001506 | 41 | 104 | 5.2 | 11.3 | 0.01 | 0.36 | 0.36 | 97 | 983.0 |
| 20260504000004 | 41 | 29 | 4.3 | 12.2 | 0.02 | 0.36 | 0.36 | 97 | 984.5 |
| 20260503234504 | 40 | 44 | 6.1 | 14.8 | 0.06 | 0.36 | 0.36 | 97 | 984.3 |
| 20260503233059 | 40 | 63 | 7.8 | 26.9 | 0.06 | 0.35 | 0.35 | 97 | 985.0 |
| 20260503231555 | 39 | 358 | 8.7 | 26.9 | 0.06 | 0.35 | 0.35 | 96 | 985.8 |
| 20260503230058 | 39 | 77 | 8.7 | 23.5 | 0.06 | 0.35 | 0.35 | 96 | 986.5 |
| 20260503224549 | 39 | 26 | 6.1 | 20.0 | 0.03 | 0.31 | 0.31 | 96 | 988.2 |
| 20260503223046 | 39 | 49 | 7.8 | 14.8 | 0.04 | 0.30 | 0.30 | 96 | 989.2 |
| 20260503221541 | 39 | 94 | 5.2 | 18.2 | 0.07 | 0.28 | 0.28 | 96 | 990.4 |
| 20260503220047 | 40 | 348 | 6.1 | 16.5 | 0.11 | 0.28 | 0.28 | 96 | 991.5 |
| 20260503214537 | 40 | 49 | 5.2 | 14.8 | 0.12 | 0.28 | 0.28 | 96 | 992.2 |
| 20260503213032 | 41 | 84 | 3.5 | 9.6 | 0.11 | 0.26 | 0.26 | 95 | 993.9 |
| 20260503211528 | 42 | 83 | 4.3 | 9.6 | 0.09 | 0.22 | 0.22 | 95 | 994.7 |
| 20260503210027 | 42 | 113 | 5.2 | 16.5 | 0.06 | 0.17 | 0.17 | 95 | 995.2 |
| 20260503204526 | 42 | 147 | 3.5 | 7.0 | 0.06 | 0.16 | 0.16 | 95 | 995.0 |
| 20260503203030 | 43 | 45 | 3.5 | 10.4 | 0.07 | 0.15 | 0.15 | 95 | 995.3 |
| 20260503201520 | 43 | 85 | 3.5 | 8.7 | 0.07 | 0.13 | 0.13 | 94 | 996.8 |
| 20260503200018 | 43 | 30 | 2.6 | 7.8 | 0.06 | 0.11 | 0.11 | 94 | 996.9 |
| 20260503194515 | 42 | 26 | 2.6 | 7.8 | 0.06 | 0.10 | 0.10 | 94 | 997.9 |
| 20260503193013 | 43 | 28 | 3.5 | 8.7 | 0.02 | 0.07 | 0.07 | 93 | 999.3 |